Location: Devargunta
(16.7631°N, 80.9077°E)
Time: 11:01:07
(UTC+00:00)

Cosmos 1844 - Pass Details

Date: 19 January 2021
Orbit: 821 x 869 km, 70.9° (Epoch: 28 February)

Event Time Altitude Azimuth Distance (km) Brightness Sun altitude
Rises 12:45:24 0° 196° (SSW) 3,347 7.4 -5.3°
Reaches altitude 10° 12:47:48 10° 196° (SSW) 2,420 6.6 -5.9°
Maximum altitude 12:53:22 89° 105° (ESE) 836 3.7 -7.1°
Drops below altitude 10° 12:58:59 10° 17° (NNE) 2,453 5.8 -8.4°
Sets 13:01:27 0° 17° (NNE) 3,396 6.5 -8.9°
